sat.trackr.live / text

‹ back to catalog

APRIZESAT 5

NORAD 37792 · 2011-044E

PAYLOAD ACTIVE UNKNOWN

§ Identity

Operator
Country
US
Launch date
2011-08-17
Launch site
DLS
Launch vehicle
Mass (kg)
RCS (m²)
0.11

Purposes: tech_demo

External: N2YO · Heavens-Above · Gunter

§ Orbital elements

Epoch: 2026-09-20T01:24:09.190080Z

Period
97.22 min
Inclination
98.2483°
Eccentricity
0.0053265
Mean motion
14.81215502 rev/d
Perigee alt
588.2 km
Apogee alt
662.8 km
Semi-major
7,003.6 km
B*
9.2202e-5
RAAN
198.8056°
Arg perigee
57.9299°
Mean anomaly
302.7069°
Rev number
81,283

§ Raw data

APRIZESAT 51 37792U 11044E   26263.05843970  .00000676  00000+0  92202-4 0  99902 37792  98.2483 198.8056 0053265  57.9299 302.7069 14.81215502812831

JSON: /api/v1/satellites/37792 · /tle

For live sub-satellite position, see the globe view (requires WebGL).

§ Visibility from observer

Set your observer location to see the next 7 days of passes ≥ 10°. The values pass through the URL so the page stays shareable.

No JS? Fill the form by hand. The geolocation button needs JavaScript.